Hourly Data Report for October 14, 2016

All times are specified in Local Standard Time (LST). Add 1 hour to adjust for Daylight Saving Time where and when it is observed.

IQALUIT CLIMATE
NUNAVUT

63°44'50.000" N
68°32'40.000" W
33.50 m
2402592
71321
XFB

Download Data

Hourly Data (October 2016)
Hourly Data Report for October 14, 2016
Temp Definition
°C
Dew Point Temp Definition
°C
Rel Hum Definition
%
Wind Dir Definition
10's deg

Wind Spd Definition
km/h
Visibility Definition
km
Stn Press Definition
kPa
Hmdx Definition


Wind Chill Definition


Weather Definition


TIME
00:00 -2.0 -2.4 97 13 13   100.26   -6 LegendNANA
01:00 -2.2 -2.5 98 12 14   100.26   -7 LegendNANA
02:00 -2.8 -3.1 97 11 13   100.29   -7 LegendNANA
03:00 -2.2 -2.5 98 12 16   100.31   -7 LegendNANA
04:00 -1.1 -1.3 98 15 18   100.32   -6 LegendNANA
05:00 -1.1 -1.5 97 20 11   100.37   -5 LegendNANA
06:00 -2.0 -2.9 94 22 8   100.40   -5 LegendNANA
07:00 -3.1 -4.1 92 14 4   100.42   -5 LegendNANA
08:00 -2.4 -3.5 92 16 6   100.43   -5 LegendNANA
09:00 -2.1 -3.4 90 10 4   100.44   -4 LegendNANA
10:00 -1.3 -4.1 82 21 14   100.46   -6 LegendNANA
11:00 -0.9 -3.7 81 24 8   100.45   -4 LegendNANA
12:00 -0.2 -4.5 73 0 1   100.45   -1 LegendNANA
13:00 -2.2 -5.5 78 9 11   100.44   -6 LegendNANA
14:00 -2.0 -5.4 77 11 9   100.44   -5 LegendNANA
15:00 -1.9 -4.5 83 12 9   100.44   -5 LegendNANA
16:00 -2.0 -3.0 93 14 12   100.46   -6 LegendNANA
17:00 -2.4 -3.0 96 15 19   100.44   -8 LegendNANA
18:00 -2.2 -2.8 96 15 18   100.42   -8 LegendNANA
19:00 -2.1 -2.5 97 15 15   100.40   -7 LegendNANA
20:00 -2.1 -2.5 97 17 7   100.37   -5 LegendNANA
21:00 -2.5 -3.0 96 23 5   100.35   -4 LegendNANA
22:00 -3.3 -3.7 97 0 1   100.35   -4 LegendNANA
23:00 -4.8 -5.3 96 34 5   100.35   -7 LegendNANA

Notes on Data Quality.

Legend

  • E = Estimated
  • M = Missing
  • NA = Not Available
  • ‡ = Partner data that is not subject to review by the National Climate Archives
Date modified: